Oshkosh, WI

2:26 AM CST on February 10, 2016 (GMT -0600)
Wittman Regional

Weather History for KOSH - August, 2013

Change the Weather History Date:

Thursday, August 15, 2013

  Actual Average Record
Temperature  
Mean Temperature 64 °F -  
Max Temperature 78 °F 79 °F 92 °F (1978)
Min Temperature 50 °F 57 °F 41 °F (1976)
Degree Days  
Heating Degree Days 2    
Growing Degree Days 14 (Base 50)    
Moisture  
Dew Point 51 °F    
Average Humidity 62    
Maximum Humidity 93    
Minimum Humidity 36    
Precipitation  
Precipitation 0.00 in - - ()
Sea Level Pressure  
Sea Level Pressure 30.09 in    
Wind  
Wind Speed 5 mph (WSW)    
Max Wind Speed 8 mph    
Max Gust Speed -    
Visibility 10 miles    
Events      
Averages and records for this station are not official NWS values.
T = Trace of Precipitation, MM = Missing Value Source: NWS Daily Summary

Daily Weather History Graph

Daily Weather History Graph

Search for Another Location

Airport or City:

Trip Planner

Search our weather history database for the weather conditions in past years. The results will help you decide how hot, cold, wet, or windy it might be!

Date:

Astronomy

Aug. 15, 2013 Rise Set
Actual Time 5:58 AM CDT 7:58 PM CDT
Civil Twilight 5:27 AM CDT 8:29 PM CDT
Nautical Twilight 4:48 AM CDT 9:07 PM CDT
Astronomical Twilight 4:06 AM CDT 9:49 PM CDT
Moon 3:18 PM CDT (8/15) 12:04 AM CDT (8/15)
Length of Visible Light 15h 02m
Length of Day
13h 59m
Waxing Gibbous, 64% of the Moon is Illuminated
Aug 15
Waxing Gibbous
Aug 20
Full
Aug 28
Last Quarter
Sep 5
New
Sep 12
First Quarter

Hourly Weather History & Observations

Time (CDT) Temp. Dew Point Humidity Pressure Visibility Wind Dir Wind Speed Gust Speed Precip Events Conditions
12:53 AM 57.9 °F 52.0 °F 81% 30.12 in 10.0 mi SSW 8.1 mph - N/A   Mostly Cloudy
1:53 AM 57.0 °F 51.1 °F 81% 30.11 in 10.0 mi SSW 4.6 mph - N/A   Clear
2:53 AM 55.9 °F 51.1 °F 84% 30.10 in 10.0 mi SSW 6.9 mph - N/A   Clear
3:53 AM 55.9 °F 51.1 °F 84% 30.10 in 10.0 mi SW 5.8 mph - N/A   Clear
4:53 AM 50.0 °F 48.0 °F 93% 30.11 in 10.0 mi SSW 4.6 mph - N/A   Clear
5:53 AM 51.1 °F 48.0 °F 89% 30.10 in 9.0 mi SSW 3.5 mph - N/A   Scattered Clouds
6:53 AM 55.0 °F 51.1 °F 86% 30.11 in 9.0 mi Calm Calm - N/A   Mostly Cloudy
7:53 AM 61.0 °F 54.0 °F 78% 30.12 in 10.0 mi Calm Calm - N/A   Mostly Cloudy
8:53 AM 64.0 °F 54.0 °F 70% 30.13 in 10.0 mi SW 5.8 mph - N/A   Overcast
9:53 AM 68.0 °F 54.0 °F 61% 30.13 in 10.0 mi WSW 3.5 mph - N/A   Overcast
10:53 AM 73.0 °F 52.0 °F 48% 30.11 in 10.0 mi WSW 4.6 mph - N/A   Partly Cloudy
11:53 AM 75.0 °F 48.0 °F 38% 30.09 in 10.0 mi Variable 5.8 mph - N/A   Clear
12:53 PM 75.9 °F 46.9 °F 36% 30.08 in 10.0 mi NW 8.1 mph - N/A   Mostly Cloudy
1:53 PM 75.9 °F 48.9 °F 38% 30.07 in 10.0 mi WSW 8.1 mph - N/A   Mostly Cloudy
2:53 PM 77.0 °F 50.0 °F 39% 30.06 in 10.0 mi NW 8.1 mph - N/A   Mostly Cloudy
3:53 PM 77.0 °F 50.0 °F 39% 30.05 in 10.0 mi WNW 5.8 mph - N/A   Mostly Cloudy
4:53 PM 77.0 °F 51.1 °F 40% 30.06 in 10.0 mi Variable 4.6 mph - N/A   Partly Cloudy
5:53 PM 75.9 °F 51.1 °F 42% 30.06 in 10.0 mi West 4.6 mph - N/A   Scattered Clouds
6:53 PM 73.9 °F 53.1 °F 48% 30.06 in 10.0 mi Calm Calm - N/A   Overcast
7:53 PM 71.1 °F 54.0 °F 55% 30.07 in 10.0 mi SW 3.5 mph - N/A   Clear
8:53 PM 69.1 °F 54.0 °F 58% 30.07 in 10.0 mi WSW 3.5 mph - N/A   Scattered Clouds
9:53 PM 66.9 °F 53.1 °F 61% 30.09 in 10.0 mi SW 4.6 mph - N/A   Clear
10:53 PM 61.0 °F 53.1 °F 75% 30.08 in 10.0 mi Calm Calm - N/A   Clear